Satellite-Ground Cal/Val Site Overpasses Predictions

Prediction of Satellite NPP Overpassing Cal/Val Site: Antarctic Dome C

Ground Cal/Val Site Location: Latitude: -75.10, Longitude: 123.35; Satellite-Ground Site NADIR distance within 100 km.

Table of predicted overpasses for the next 14.0 days since TLE Epoch: 2/16/2017
Interval Starting Time Ending Time Minimum Distance Time Minimum Distance (km)
1 02/16/2017 07:37:52 02/16/2017 07:38:19 02/16/2017 07:38:05 37.07
2 02/17/2017 07:19:05 02/17/2017 07:19:25 02/17/2017 07:19:15 72.98
3 02/19/2017 15:01:19 02/19/2017 15:01:42 02/19/2017 15:01:31 58.75
4 02/20/2017 14:42:27 02/20/2017 14:42:53 02/20/2017 14:42:40 50.49
5 02/21/2017 07:44:09 02/21/2017 07:44:29 02/21/2017 07:44:19 72.06
6 02/22/2017 07:25:16 02/22/2017 07:25:43 02/22/2017 07:25:29 35.89
7 02/24/2017 15:07:40 02/24/2017 15:07:47 02/24/2017 15:07:44 96.24
8 02/25/2017 14:48:39 02/25/2017 14:49:08 02/25/2017 14:48:54 15.39


NCC Satellite Cal/Val Overpasses Prediction Service
